WZZ2631 LHBP-LIRF

Flight info

Callsign WZZ2631
Flight time 1h 22m
Altitude 34000
Route DUZLA DCT VEBAL DCT NIVES DCT IBENI/N0444F350 DCT ERDON DCT GOTMO DCT RITEB
Aircraft A21N/M-SDE1E2E3FGIJ1J4RWXY/LB1

Departure

Time 2026-05-07 15:50
Airport Budapest Liszt Ferenc International Airport (LHBP)

Arrival

Time 2026-05-07 17:12
Airport Rome–Fiumicino Leonardo da Vinci International Airport (LIRF)
Time Latitude Longitude Altitude Speed Heading
2026-05-07 15:11 47.43478 19.26532 463 ft 0 kts 222°
2026-05-07 15:42 47.43483 19.26539 463 ft 4 kts 224°
2026-05-07 15:43 47.43501 19.26568 460 ft 4 kts 241°
2026-05-07 15:43 47.43507 19.26601 459 ft 4 kts 291°
2026-05-07 15:43 47.43502 19.26613 461 ft 1 kts 312°
2026-05-07 15:46 47.43548 19.26540 463 ft 13 kts 312°
2026-05-07 15:46 47.43615 19.26432 463 ft 15 kts 313°
2026-05-07 15:46 47.43676 19.26300 463 ft 17 kts 279°
2026-05-07 15:47 47.43674 19.26122 463 ft 18 kts 269°
2026-05-07 15:47 47.43735 19.25973 463 ft 15 kts 310°
2026-05-07 15:47 47.43723 19.25899 463 ft 9 kts 232°
2026-05-07 15:47 47.43653 19.25802 462 ft 17 kts 222°
2026-05-07 15:48 47.43560 19.25678 463 ft 19 kts 222°
2026-05-07 15:48 47.43461 19.25545 463 ft 20 kts 222°
2026-05-07 15:48 47.43355 19.25403 463 ft 21 kts 222°
2026-05-07 15:48 47.43242 19.25251 463 ft 22 kts 223°
2026-05-07 15:49 47.43124 19.25092 463 ft 22 kts 222°
2026-05-07 15:49 47.43071 19.25020 462 ft 2 kts 230°
2026-05-07 15:49 47.43073 19.24986 463 ft 5 kts 306°
2026-05-07 15:49 47.43103 19.24935 463 ft 11 kts 311°
2026-05-07 15:50 47.43299 19.24622 458 ft 80 kts 313°
2026-05-07 15:50 47.43839 19.23749 460 ft 145 kts 312°
2026-05-07 15:50 47.44593 19.22550 780 ft 163 kts 310°
2026-05-07 15:50 47.45361 19.21308 1446 ft 163 kts 309°
2026-05-07 15:51 47.46118 19.20058 2059 ft 168 kts 308°
2026-05-07 15:51 47.46945 19.18685 2416 ft 187 kts 310°
2026-05-07 15:51 47.47848 19.17205 2930 ft 201 kts 309°
2026-05-07 15:51 47.48702 19.15467 3395 ft 221 kts 289°
2026-05-07 15:52 47.48901 19.13133 3737 ft 242 kts 258°
2026-05-07 15:52 47.48385 19.10692 4380 ft 254 kts 246°
2026-05-07 15:52 47.47441 19.08484 5218 ft 258 kts 222°
2026-05-07 15:52 47.45893 19.07101 6071 ft 263 kts 205°
2026-05-07 15:53 47.44204 19.06006 6933 ft 267 kts 205°
2026-05-07 15:53 47.42499 19.04894 7796 ft 269 kts 205°
2026-05-07 15:53 47.40816 19.03769 8661 ft 270 kts 206°
2026-05-07 15:53 47.39111 19.02609 9551 ft 271 kts 207°
2026-05-07 15:54 47.37390 19.01425 10286 ft 278 kts 207°
2026-05-07 15:54 47.35585 19.00174 10652 ft 296 kts 207°
2026-05-07 15:54 47.33676 18.98850 11118 ft 309 kts 206°
2026-05-07 15:54 47.31710 18.97501 11806 ft 314 kts 206°
2026-05-07 15:55 47.29720 18.96150 12571 ft 317 kts 205°
2026-05-07 15:55 47.27709 18.94781 13361 ft 320 kts 205°
2026-05-07 15:55 47.25685 18.93394 14110 ft 322 kts 205°
2026-05-07 15:55 47.23641 18.92000 14797 ft 325 kts 205°
2026-05-07 15:56 47.21577 18.90588 15501 ft 328 kts 205°
2026-05-07 15:56 47.19498 18.89166 16210 ft 331 kts 205°
2026-05-07 15:56 47.17402 18.87737 16903 ft 334 kts 205°
2026-05-07 15:56 47.15285 18.86296 17595 ft 337 kts 205°
2026-05-07 15:57 47.13152 18.84844 18280 ft 339 kts 205°
2026-05-07 15:57 47.11001 18.83383 18852 ft 342 kts 205°
2026-05-07 15:57 47.08834 18.81912 19409 ft 345 kts 205°
2026-05-07 15:57 47.06648 18.80430 19952 ft 347 kts 205°
2026-05-07 15:58 47.04448 18.78938 20495 ft 350 kts 206°
2026-05-07 15:58 47.02235 18.77436 21032 ft 352 kts 206°
2026-05-07 15:58 47.00003 18.75925 21545 ft 354 kts 206°
2026-05-07 15:58 46.97758 18.74406 22040 ft 357 kts 206°
2026-05-07 15:59 46.95594 18.72624 22512 ft 358 kts 216°
2026-05-07 15:59 46.93731 18.70185 22965 ft 361 kts 225°
2026-05-07 15:59 46.91993 18.67516 23422 ft 363 kts 226°
2026-05-07 15:59 46.90253 18.64817 23826 ft 366 kts 225°
2026-05-07 16:00 46.88499 18.62118 24235 ft 367 kts 225°
2026-05-07 16:00 46.86733 18.59423 24643 ft 367 kts 225°
2026-05-07 16:00 46.84958 18.56728 25035 ft 368 kts 225°
2026-05-07 16:00 46.83179 18.54032 25416 ft 369 kts 225°
2026-05-07 16:01 46.81393 18.51328 25791 ft 370 kts 225°
2026-05-07 16:01 46.79601 18.48619 26155 ft 372 kts 225°
2026-05-07 16:01 46.77804 18.45903 26510 ft 373 kts 225°
2026-05-07 16:01 46.75999 18.43176 26858 ft 374 kts 225°
2026-05-07 16:02 46.74189 18.40447 27207 ft 375 kts 225°
2026-05-07 16:02 46.72376 18.37713 27533 ft 376 kts 225°
2026-05-07 16:02 46.70552 18.34965 27855 ft 378 kts 225°
2026-05-07 16:02 46.68721 18.32210 28170 ft 379 kts 225°
2026-05-07 16:03 46.66880 18.29448 28482 ft 381 kts 225°
2026-05-07 16:03 46.65034 18.26680 28792 ft 382 kts 225°
2026-05-07 16:03 46.63181 18.23901 29094 ft 383 kts 225°
2026-05-07 16:03 46.61322 18.21118 29390 ft 384 kts 225°
2026-05-07 16:04 46.59459 18.18331 29675 ft 385 kts 225°
2026-05-07 16:04 46.57588 18.15537 29950 ft 386 kts 225°
2026-05-07 16:04 46.55707 18.12735 30180 ft 387 kts 225°
2026-05-07 16:04 46.53824 18.09928 30375 ft 389 kts 225°
2026-05-07 16:05 46.51928 18.07107 30576 ft 391 kts 225°
2026-05-07 16:05 46.50027 18.04276 30790 ft 392 kts 225°
2026-05-07 16:05 46.48118 18.01438 31004 ft 393 kts 225°
2026-05-07 16:05 46.46203 17.98595 31243 ft 394 kts 225°
2026-05-07 16:06 46.44291 17.95759 31586 ft 392 kts 225°
2026-05-07 16:06 46.42415 17.92983 31933 ft 389 kts 225°
2026-05-07 16:06 46.40523 17.90187 32225 ft 387 kts 225°
2026-05-07 16:06 46.38640 17.87405 32474 ft 386 kts 225°
2026-05-07 16:07 46.36734 17.84592 32695 ft 386 kts 225°
2026-05-07 16:07 46.34879 17.81852 32911 ft 386 kts 225°
2026-05-07 16:07 46.33002 17.79084 33141 ft 385 kts 225°
2026-05-07 16:07 46.31126 17.76324 33360 ft 385 kts 225°
2026-05-07 16:08 46.29252 17.73569 33589 ft 384 kts 225°
2026-05-07 16:08 46.27377 17.70818 33804 ft 383 kts 225°
2026-05-07 16:08 46.25508 17.68075 33997 ft 384 kts 225°
2026-05-07 16:09 46.21757 17.62583 33994 ft 384 kts 225°
2026-05-07 16:09 46.17993 17.57078 33984 ft 386 kts 226°
2026-05-07 16:10 46.14215 17.51568 33984 ft 386 kts 226°
2026-05-07 16:10 46.10440 17.46066 33987 ft 386 kts 226°
2026-05-07 16:11 46.06660 17.40575 33982 ft 386 kts 226°
2026-05-07 16:11 46.02873 17.35087 33975 ft 387 kts 226°
2026-05-07 16:12 45.99105 17.29547 33981 ft 387 kts 230°
2026-05-07 16:12 45.95765 17.23483 34016 ft 386 kts 233°
2026-05-07 16:13 45.92497 17.17406 33993 ft 383 kts 233°
2026-05-07 16:13 45.89225 17.11363 33990 ft 383 kts 233°
2026-05-07 16:14 45.85954 17.05332 33979 ft 383 kts 233°
2026-05-07 16:14 45.82678 16.99314 33993 ft 383 kts 233°
2026-05-07 16:15 45.79398 16.93302 33990 ft 383 kts 233°
2026-05-07 16:15 45.76139 16.87338 33984 ft 383 kts 233°
2026-05-07 16:16 45.72855 16.81344 33981 ft 383 kts 233°
2026-05-07 16:16 45.69568 16.75357 33992 ft 383 kts 233°
2026-05-07 16:17 45.66271 16.69383 33987 ft 383 kts 233°
2026-05-07 16:17 45.62975 16.63411 33990 ft 383 kts 233°
2026-05-07 16:18 45.59683 16.57453 33992 ft 381 kts 233°
2026-05-07 16:18 45.56396 16.51515 33993 ft 381 kts 233°
2026-05-07 16:19 45.53109 16.45586 33994 ft 381 kts 233°
2026-05-07 16:19 45.49817 16.39661 33994 ft 381 kts 233°
2026-05-07 16:20 45.46526 16.33735 33995 ft 381 kts 233°
2026-05-07 16:20 45.43226 16.27829 34009 ft 381 kts 233°
2026-05-07 16:21 45.39921 16.21922 33971 ft 381 kts 233°
2026-05-07 16:21 45.36608 16.16005 33995 ft 383 kts 233°
2026-05-07 16:22 45.33281 16.10086 33998 ft 383 kts 233°
2026-05-07 16:22 45.29955 16.04177 33995 ft 383 kts 233°
2026-05-07 16:23 45.26628 15.98279 34005 ft 381 kts 233°
2026-05-07 16:23 45.23306 15.92408 33982 ft 382 kts 233°
2026-05-07 16:24 45.20491 15.87551 33986 ft 384 kts 232°
2026-05-07 16:24 45.17064 15.81739 33985 ft 384 kts 232°
2026-05-07 16:25 45.13631 15.75930 33991 ft 384 kts 232°
2026-05-07 16:25 45.10198 15.70131 33987 ft 384 kts 232°
2026-05-07 16:26 45.06767 15.64344 33989 ft 384 kts 232°
2026-05-07 16:26 45.03329 15.58560 33991 ft 384 kts 232°
2026-05-07 16:27 44.99894 15.52794 33997 ft 383 kts 232°
2026-05-07 16:27 44.96452 15.47028 33999 ft 384 kts 232°
2026-05-07 16:28 44.93006 15.41264 34025 ft 384 kts 232°
2026-05-07 16:28 44.89560 15.35517 34003 ft 384 kts 232°
2026-05-07 16:29 44.86103 15.29764 34019 ft 385 kts 232°
2026-05-07 16:29 44.82647 15.24013 34016 ft 385 kts 232°
2026-05-07 16:30 44.79183 15.18267 34018 ft 385 kts 232°
2026-05-07 16:30 44.75718 15.12529 34001 ft 384 kts 232°
2026-05-07 16:31 44.72248 15.06790 34028 ft 386 kts 232°
2026-05-07 16:31 44.68758 15.01041 34030 ft 387 kts 232°
2026-05-07 16:32 44.65268 14.95297 34030 ft 386 kts 232°
2026-05-07 16:32 44.61775 14.89563 34031 ft 386 kts 232°
2026-05-07 16:33 44.58282 14.83836 34024 ft 386 kts 232°
2026-05-07 16:33 44.54783 14.78113 34030 ft 387 kts 232°
2026-05-07 16:34 44.51279 14.72395 34029 ft 387 kts 232°
2026-05-07 16:34 44.47777 14.66678 34026 ft 387 kts 232°
2026-05-07 16:35 44.44295 14.61007 34010 ft 387 kts 232°
2026-05-07 16:35 44.40788 14.55317 34018 ft 386 kts 232°
2026-05-07 16:36 44.37282 14.49634 34012 ft 386 kts 232°
2026-05-07 16:36 44.33748 14.43922 34012 ft 386 kts 232°
2026-05-07 16:37 44.30257 14.38294 34012 ft 386 kts 232°
2026-05-07 16:37 44.26743 14.32631 34008 ft 385 kts 232°
2026-05-07 16:38 44.23215 14.26963 34010 ft 384 kts 232°
2026-05-07 16:38 44.19733 14.21382 34004 ft 384 kts 231°
2026-05-07 16:39 44.16226 14.15770 34003 ft 384 kts 231°
2026-05-07 16:39 44.12715 14.10167 34003 ft 384 kts 231°
2026-05-07 16:40 44.09216 14.04590 33990 ft 381 kts 232°
2026-05-07 16:40 44.05730 13.99045 33993 ft 381 kts 232°
2026-05-07 16:41 44.02239 13.93503 33999 ft 381 kts 231°
2026-05-07 16:41 43.98404 13.88385 33995 ft 384 kts 226°
2026-05-07 16:42 43.94428 13.83447 33999 ft 383 kts 226°
2026-05-07 16:42 43.90469 13.78528 33994 ft 382 kts 226°
2026-05-07 16:43 43.86510 13.73599 33991 ft 382 kts 226°
2026-05-07 16:43 43.82544 13.68683 33989 ft 382 kts 226°
2026-05-07 16:44 43.78582 13.63768 33978 ft 382 kts 226°
2026-05-07 16:44 43.74629 13.58876 33989 ft 381 kts 226°
2026-05-07 16:45 43.70674 13.53993 33992 ft 381 kts 226°
2026-05-07 16:45 43.66717 13.49120 34009 ft 382 kts 226°
2026-05-07 16:46 43.62755 13.44247 33996 ft 382 kts 226°
2026-05-07 16:46 43.58803 13.39394 33984 ft 379 kts 226°
2026-05-07 16:47 43.54861 13.34564 33973 ft 379 kts 226°
2026-05-07 16:47 43.50922 13.29738 33979 ft 379 kts 226°
2026-05-07 16:48 43.46981 13.24925 33987 ft 379 kts 226°
2026-05-07 16:48 43.43033 13.20116 33964 ft 378 kts 226°
2026-05-07 16:49 43.39103 13.15334 33976 ft 377 kts 226°
2026-05-07 16:49 43.37137 13.12944 33844 ft 377 kts 226°
2026-05-07 16:49 43.35167 13.10558 33494 ft 378 kts 226°
2026-05-07 16:49 43.33269 13.08073 33113 ft 373 kts 230°
2026-05-07 16:50 43.31516 13.05520 32781 ft 361 kts 231°
2026-05-07 16:50 43.29832 13.03031 32496 ft 352 kts 231°
2026-05-07 16:50 43.28175 13.00584 32185 ft 349 kts 231°
2026-05-07 16:50 43.26523 12.98155 31923 ft 348 kts 231°
2026-05-07 16:51 43.24896 12.95766 31673 ft 347 kts 231°
2026-05-07 16:51 43.23251 12.93356 31419 ft 346 kts 231°
2026-05-07 16:51 43.21607 12.90955 31168 ft 345 kts 231°
2026-05-07 16:51 43.19964 12.88554 30919 ft 345 kts 231°
2026-05-07 16:52 43.18325 12.86163 30671 ft 344 kts 231°
2026-05-07 16:52 43.16688 12.83782 30421 ft 343 kts 232°
2026-05-07 16:52 43.15054 12.81405 30186 ft 343 kts 232°
2026-05-07 16:52 43.13423 12.79030 29940 ft 342 kts 232°
2026-05-07 16:53 43.11795 12.76663 29670 ft 341 kts 232°
2026-05-07 16:53 43.10177 12.74314 29358 ft 338 kts 231°
2026-05-07 16:53 43.08569 12.71980 29079 ft 337 kts 231°
2026-05-07 16:53 43.06961 12.69645 28805 ft 337 kts 231°
2026-05-07 16:54 43.05351 12.67314 28527 ft 337 kts 231°
2026-05-07 16:54 43.03744 12.64992 28268 ft 336 kts 231°
2026-05-07 16:54 43.02145 12.62678 27999 ft 334 kts 231°
2026-05-07 16:54 43.00550 12.60374 27735 ft 333 kts 231°
2026-05-07 16:55 42.98958 12.58073 27475 ft 332 kts 231°
2026-05-07 16:55 42.97370 12.55781 27218 ft 332 kts 231°
2026-05-07 16:55 42.95787 12.53498 26899 ft 330 kts 231°
2026-05-07 16:55 42.94214 12.51232 26286 ft 329 kts 231°
2026-05-07 16:56 42.92634 12.48957 25551 ft 332 kts 230°
2026-05-07 16:56 42.91033 12.46654 24804 ft 337 kts 230°
2026-05-07 16:56 42.87769 12.41970 23292 ft 344 kts 229°
2026-05-07 16:57 42.86110 12.39590 22441 ft 347 kts 229°
2026-05-07 16:57 42.84942 12.37915 21850 ft 349 kts 229°
2026-05-07 16:57 42.83266 12.35513 21021 ft 350 kts 229°
2026-05-07 16:57 42.81777 12.33380 20320 ft 351 kts 229°
2026-05-07 16:58 42.80090 12.30970 19539 ft 352 kts 228°
2026-05-07 16:58 42.78399 12.28556 18781 ft 352 kts 228°
2026-05-07 16:58 42.76706 12.26139 17989 ft 353 kts 227°
2026-05-07 16:58 42.75009 12.23719 17143 ft 354 kts 227°
2026-05-07 16:59 42.73312 12.21298 16324 ft 354 kts 227°
2026-05-07 16:59 42.71460 12.19086 15503 ft 357 kts 215°
2026-05-07 16:59 42.69208 12.17631 14695 ft 362 kts 199°
2026-05-07 16:59 42.66744 12.16856 13894 ft 364 kts 194°
2026-05-07 17:00 42.64261 12.16204 13123 ft 361 kts 193°
2026-05-07 17:00 42.61792 12.15794 12528 ft 356 kts 184°
2026-05-07 17:00 42.59343 12.15825 12016 ft 347 kts 181°
2026-05-07 17:00 42.56959 12.15902 11525 ft 339 kts 181°
2026-05-07 17:01 42.54630 12.15965 11057 ft 330 kts 181°
2026-05-07 17:01 42.52364 12.16015 10639 ft 321 kts 181°
2026-05-07 17:01 42.50162 12.16057 10247 ft 313 kts 181°
2026-05-07 17:01 42.48014 12.16097 9890 ft 304 kts 181°
2026-05-07 17:02 42.45924 12.16134 9514 ft 296 kts 181°
2026-05-07 17:02 42.43897 12.16169 9143 ft 287 kts 180°
2026-05-07 17:02 42.41922 12.16203 8778 ft 280 kts 181°
2026-05-07 17:02 42.40001 12.16234 8426 ft 273 kts 181°
2026-05-07 17:03 42.38121 12.16265 8076 ft 267 kts 181°
2026-05-07 17:03 42.36280 12.16294 7723 ft 262 kts 180°
2026-05-07 17:03 42.35080 12.16314 7497 ft 259 kts 180°
2026-05-07 17:03 42.34337 12.16325 7362 ft 269 kts 180°
2026-05-07 17:04 42.32028 12.16362 6961 ft 273 kts 180°
2026-05-07 17:04 42.30125 12.16393 6646 ft 274 kts 179°
2026-05-07 17:04 42.28218 12.16424 6323 ft 273 kts 179°
2026-05-07 17:04 42.26320 12.16455 5973 ft 273 kts 179°
2026-05-07 17:05 42.24426 12.16486 5622 ft 272 kts 179°
2026-05-07 17:05 42.22532 12.16517 5279 ft 272 kts 179°
2026-05-07 17:05 42.20645 12.16548 4945 ft 271 kts 179°
2026-05-07 17:05 42.18758 12.16580 4605 ft 271 kts 178°
2026-05-07 17:06 42.16738 12.16614 4389 ft 301 kts 178°
2026-05-07 17:06 42.14639 12.16650 4179 ft 302 kts 179°
2026-05-07 17:06 42.12535 12.16681 4001 ft 303 kts 179°
2026-05-07 17:06 42.10430 12.16717 3828 ft 303 kts 179°
2026-05-07 17:07 42.08316 12.16794 3650 ft 305 kts 176°
2026-05-07 17:07 42.06234 12.17114 3476 ft 295 kts 169°
2026-05-07 17:07 42.04288 12.17745 3280 ft 281 kts 160°
2026-05-07 17:07 42.02531 12.18647 3144 ft 267 kts 163°
2026-05-07 17:08 42.00816 12.19359 2967 ft 248 kts 162°
2026-05-07 17:08 41.99230 12.20019 2904 ft 230 kts 162°
2026-05-07 17:08 41.97763 12.20633 2745 ft 213 kts 162°
2026-05-07 17:08 41.96385 12.21211 2482 ft 203 kts 162°
2026-05-07 17:09 41.95065 12.21764 2197 ft 195 kts 162°
2026-05-07 17:09 41.93798 12.22296 1923 ft 186 kts 162°
2026-05-07 17:09 41.92980 12.22638 1769 ft 177 kts 162°
2026-05-07 17:09 41.91829 12.23121 1531 ft 169 kts 163°
2026-05-07 17:10 41.90755 12.23571 1312 ft 151 kts 164°
2026-05-07 17:10 41.89782 12.23978 1091 ft 144 kts 164°
2026-05-07 17:10 41.88832 12.24375 900 ft 144 kts 165°
2026-05-07 17:10 41.87865 12.24780 733 ft 147 kts 166°
2026-05-07 17:11 41.86921 12.25187 571 ft 142 kts 166°
2026-05-07 17:11 41.85975 12.25577 369 ft 143 kts 166°
2026-05-07 17:11 41.85015 12.25978 171 ft 144 kts 166°
2026-05-07 17:11 41.84063 12.26376 30 ft 140 kts 166°
2026-05-07 17:12 41.83230 12.26724 16 ft 100 kts 164°
2026-05-07 17:12 41.82755 12.26922 19 ft 50 kts 162°
2026-05-07 17:12 41.82427 12.27057 16 ft 50 kts 162°
2026-05-07 17:12 41.82227 12.27131 15 ft 26 kts 169°
2026-05-07 17:13 41.82050 12.27135 17 ft 27 kts 192°
2026-05-07 17:13 41.81856 12.27076 17 ft 29 kts 192°
2026-05-07 17:13 41.81719 12.27043 17 ft 20 kts 177°
2026-05-07 17:13 41.81583 12.27088 17 ft 21 kts 162°
2026-05-07 17:14 41.81437 12.27150 17 ft 23 kts 162°
2026-05-07 17:14 41.81281 12.27215 17 ft 24 kts 162°
2026-05-07 17:14 41.81114 12.27285 18 ft 26 kts 162°
2026-05-07 17:14 41.80977 12.27342 18 ft 18 kts 162°
2026-05-07 17:15 41.80847 12.27336 18 ft 20 kts 190°
2026-05-07 17:15 41.80718 12.27304 18 ft 17 kts 205°
2026-05-07 17:15 41.80643 12.27176 19 ft 19 kts 250°
2026-05-07 17:15 41.80594 12.27002 19 ft 21 kts 250°
2026-05-07 17:16 41.80543 12.26813 20 ft 22 kts 250°
2026-05-07 17:16 41.80487 12.26609 22 ft 24 kts 250°
2026-05-07 17:16 41.80426 12.26390 22 ft 26 kts 250°
2026-05-07 17:16 41.80370 12.26183 21 ft 15 kts 250°
2026-05-07 17:17 41.80296 12.26084 22 ft 16 kts 205°
2026-05-07 17:17 41.80188 12.26017 20 ft 18 kts 205°
2026-05-07 17:17 41.80068 12.25943 19 ft 20 kts 205°
2026-05-07 17:17 41.79938 12.25863 19 ft 21 kts 205°
2026-05-07 17:18 41.79841 12.25832 19 ft 14 kts 175°
2026-05-07 17:18 41.79789 12.25813 21 ft 0 kts 206°
2026-05-07 17:18 41.79777 12.25805 19 ft 6 kts 205°
2026-05-07 17:18 41.79736 12.25782 22 ft 8 kts 184°
2026-05-07 17:19 41.79707 12.25839 22 ft 0 kts 116°